Location: Unspecified
(0.0000°N, 0.0000°E)
Time: 15:21:53
(UTC+00:00)

Vela 4A - Pass Details

Date: 06 December 2021
Orbit: 58523 x 164212 km, 32.1° (Epoch: 09 January)

Event Time Altitude Azimuth Distance (km) Brightness Sun altitude
Rises 18:31:01 0° 67° (ENE) 169,677 ? -9.3°
Reaches altitude 10° 19:18:57 10° 66° (ENE) 168,258 ? -20.3°
Maximum altitude 00:53:18 63° 2° (N) 160,187 ? -62.9°
Drops below altitude 10° 06:37:15 10° 299° (WNW) 158,336 ? 10.7°
Sets 07:28:40 0° 299° (WNW) 158,265 ? 22.4°
